Flag for U.S.A. Weather past 2 weeks in Providence, Rhode Island, U.S.A.

Now
56 °F

Scattered clouds.


Feels Like: 52 °F
Forecast: 34 / 58 °F
Wind: 14 mph from North

Location: Green State Airport

Current Time: Apr 25, 2015 at 6:36:07 PM

Latest Report: Apr 25, 2015 at 4:51 PM


Visibility: 10 mi

Pressure: 29.67 "Hg

Humidity: 28%

Dew point: 23 °F

Location of ProvidenceLocation

Historic Weather in Providence — Graph

°F

Providence temperature yesterday

Maximum temperature yesterday: 51 °F (at 2:51 PM)
Minimum temperature yesterday: 37 °F (at 2:51 AM)
Average temperature yesterday: 42 °F

Past Weeks' High & Low Weather Summary

 TemperatureHumidityPressure
High75 °F (Apr 18, 3:51 PM)100% (Apr 21, 12:51 AM)30.50 "Hg (Apr 21, 12:51 AM)
Low33 °F (Apr 25, 4:51 AM)13% (Apr 15, 2:51 PM)29.53 "Hg (Apr 21, 8:51 AM)
Average52 °F57%29.98 "Hg
* Reported Apr 10 3:51 PM — Apr 25 3:51 PM, Providence, Weather by CustomWeather, © 2015

Note: Actual official high and low records may vary slightly from our data, if they occured in-between our weather recording intervals... More about our weather records

Advertising

Providence weather history for previous 24 hours

 ConditionsComfort  
Time TempWeatherWind HumidityBarometerVisibility
3:51 PM
Sat, Apr 25
60 °FPassing clouds.10 mph26%29.67 "Hg10 mi
2:51 PM57 °FPassing clouds.14 mph28%29.69 "Hg10 mi
1:51 PM57 °FPassing clouds.9 mph28%29.71 "Hg10 mi
12:51 PM55 °FScattered clouds.10 mph31%29.72 "Hg10 mi
11:51 AM53 °FPassing clouds.10 mph34%29.75 "Hg10 mi
10:51 AM49 °FSunny.8 mph38%29.77 "Hg10 mi
9:51 AM46 °FSunny.9 mph42%29.79 "Hg10 mi
8:51 AM42 °FPassing clouds.14 mph47%29.80 "Hg10 mi
7:51 AM38 °FSunny.13 mph55%29.82 "Hg10 mi
6:51 AM35 °FSunny.12 mph59%29.82 "Hg10 mi
5:51 AM33 °FClear.10 mph63%29.81 "Hg10 mi
4:51 AM33 °FClear.8 mph63%29.80 "Hg10 mi
3:51 AM34 °FClear.7 mph59%29.80 "Hg10 mi
2:51 AM35 °FClear.6 mph56%29.80 "Hg10 mi
1:51 AM36 °FClear.7 mph52%29.80 "Hg10 mi
12:51 AM37 °FClear.10 mph50%29.82 "Hg10 mi
11:51 PM
Fri, Apr 24
38 °FPassing clouds.12 mph48%29.82 "Hg10 mi
10:51 PM39 °FPassing clouds.15 mph48%29.83 "Hg10 mi
9:51 PM40 °FPassing clouds.10 mph47%29.82 "Hg10 mi
8:51 PM42 °FPassing clouds.15 mph43%29.81 "Hg10 mi
7:51 PM43 °FPartly sunny.12 mph40%29.79 "Hg10 mi
6:51 PM45 °FPartly sunny.17 mph38%29.77 "Hg10 mi
Weather by CustomWeather, © 2015

See weather overviewHow to use our weather pages